Location: Rotheul
(50.2849°N, 11.2349°E)
Time: 15:56:46
(UTC+02:00)

ISS - Pass Details

Date: 20 May 2018
Orbit: 402 x 407 km, 51.6° (Epoch: 23 May)

Event Time Altitude Azimuth Distance (km) Brightness Sun altitude
Rises 03:12:05 0° 284° (WNW) 2,320 -0.1 -14.9°
Reaches altitude 10° 03:14:10 10° 285° (WNW) 1,459 -1.2 -14.7°
Maximum altitude 03:17:27 88° 195° (SSW) 408 -3.9 -14.5°
Drops below altitude 10° 03:20:43 10° 107° (ESE) 1,455 -0.8 -14.2°
Sets 03:22:47 0° 107° (ESE) 2,313 0.2 -14.0°
